Total_Precipitation_Accumulation
2.31 1.90 1.31 0.80 0.65 0.60 0.54 0.65 0.74 0.74 0.74 0.81 0.85 0.72 0.70 0.62 0.61 0.66 0.63 0.68 0.83 1.05 1.26 1.43 1.61 1.87 2.08 2.12 2.21 2.40 2.62 2.80 3.01 3.24 3.26 3.12 3.04 2.98 2.91 2.75 2.58 2.43 2.32 2.29
1.97 1.38 0.66 0.48 0.50 0.52 0.56 0.65 0.69 0.69 0.67 0.79 0.85 0.77 0.71 0.70 0.66 0.66 0.63 0.63 0.78 0.98 1.16 1.33 1.52 1.72 1.90 2.03 2.12 2.33 2.53 2.67 2.75 2.96 3.20 3.13 3.14 3.15 3.18 3.12 2.95 2.76 2.61 2.52
1.49 0.90 0.51 0.55 0.65 0.61 0.52 0.55 0.60 0.65 0.69 0.84 0.94 0.97 0.75 0.71 0.67 0.60 0.58 0.62 0.76 0.96 1.08 1.21 1.38 1.54 1.69 1.91 2.13 2.25 2.40 2.58 2.67 2.97 3.47 3.50 3.45 3.37 3.32 3.29 3.21 3.05 2.87 2.76
1.30 0.75 0.58 0.62 0.61 0.58 0.55 0.39 0.51 0.62 0.88 1.07 1.04 1.31 0.84 0.77 0.73 0.63 0.59 0.62 0.78 0.91 0.97 1.07 1.29 1.42 1.52 1.68 1.96 2.24 2.40 2.61 2.86 3.15 3.43 3.51 3.34 3.23 3.14 3.07 3.15 3.20 3.00 2.89
1.26 0.85 0.71 0.67 0.54 0.52 0.52 0.40 0.53 0.65 0.84 1.05 0.85 1.05 0.91 0.72 0.76 0.75 0.71 0.71 0.83 0.93 1.00 1.05 1.25 1.37 1.42 1.52 1.71 1.97 2.27 2.45 2.79 3.10 3.29 3.50 3.31 3.04 3.09 3.09 3.03 3.11 3.08 2.92
0.87 0.73 0.79 0.67 0.48 0.51 0.54 0.57 0.71 0.85 1.11 1.26 0.75 0.82 0.90 0.79 0.79 0.77 0.78 0.83 0.94 1.01 1.04 1.11 1.25 1.25 1.28 1.36 1.51 1.65 1.90 2.06 2.25 2.57 2.92 3.20 3.25 3.12 3.05 2.98 2.98 2.96 2.96 2.92
1.04 0.85 0.72 0.64 0.68 0.65 0.71 1.05 1.45 1.61 1.53 1.05 0.57 0.65 0.89 0.78 0.72 0.73 0.80 0.86 0.92 0.98 1.00 1.11 1.19 1.12 1.10 1.20 1.36 1.47 1.58 1.71 1.86 2.08 2.38 2.70 2.95 3.02 3.01 2.96 2.91 2.94 2.84 2.74
1.09 1.16 0.72 0.61 0.69 0.75 0.67 0.87 1.18 1.20 0.87 0.61 0.42 0.62 0.83 0.78 0.75 0.73 0.79 0.80 0.83 0.90 0.94 1.07 1.22 1.17 1.09 1.12 1.19 1.24 1.32 1.49 1.61 1.73 1.95 2.16 2.38 2.55 2.56 2.67 2.68 2.71 2.74 2.69
0.78 0.81 0.50 0.41 0.37 0.49 0.64 0.62 0.60 0.98 0.72 0.55 0.54 0.64 0.77 0.74 0.73 0.76 0.80 0.77 0.76 0.80 0.91 1.02 1.09 1.07 1.02 1.03 1.05 1.09 1.18 1.29 1.35 1.43 1.59 1.66 1.80 2.00 2.11 2.17 2.25 2.28 2.37 2.48
0.59 0.68 0.46 0.34 0.34 0.40 0.45 0.46 0.61 1.13 1.08 0.71 0.52 0.55 0.80 0.77 0.76 0.74 0.71 0.70 0.72 0.79 0.84 0.87 0.87 0.85 0.85 0.91 0.99 1.02 1.07 1.11 1.12 1.18 1.30 1.35 1.40 1.53 1.68 1.79 1.82 1.85 1.93 2.06
0.41 0.60 0.51 0.41 0.47 0.41 0.37 0.52 0.68 0.88 0.85 0.79 0.57 0.60 0.65 0.67 0.70 0.70 0.66 0.66 0.69 0.72 0.68 0.69 0.69 0.70 0.74 0.77 0.81 0.84 0.90 0.96 1.00 1.00 1.06 1.14 1.19 1.28 1.44 1.57 1.62 1.68 1.71 1.75
0.37 0.58 0.53 0.34 0.24 0.19 0.26 0.40 0.63 1.03 0.84 0.66 0.61 0.59 0.51 0.51 0.53 0.54 0.55 0.56 0.56 0.57 0.56 0.58 0.62 0.63 0.67 0.68 0.68 0.75 0.81 0.88 0.90 0.87 0.92 0.98 1.05 1.10 1.21 1.31 1.40 1.49 1.52 1.56
0.59 0.82 0.77 0.55 0.39 0.29 0.33 0.35 0.45 0.78 1.09 0.79 0.70 0.61 0.46 0.41 0.41 0.41 0.45 0.48 0.47 0.46 0.45 0.46 0.51 0.55 0.59 0.65 0.65 0.70 0.72 0.76 0.78 0.80 0.86 0.91 0.93 0.96 1.00 1.05 1.15 1.19 1.23 1.32
0.80 0.87 0.67 0.56 0.41 0.44 0.45 0.30 0.37 0.97 1.35 0.68 0.38 0.43 0.39 0.37 0.38 0.40 0.43 0.43 0.42 0.42 0.40 0.39 0.43 0.45 0.49 0.57 0.61 0.61 0.61 0.64 0.72 0.75 0.79 0.85 0.84 0.85 0.89 0.89 0.94 0.98 1.00 1.01
0.71 0.76 0.37 0.25 0.24 0.39 0.42 0.32 0.35 0.62 0.63 0.64 0.37 0.30 0.35 0.36 0.39 0.42 0.42 0.38 0.37 0.38 0.37 0.35 0.39 0.41 0.45 0.51 0.53 0.53 0.57 0.61 0.67 0.73 0.73 0.76 0.79 0.79 0.81 0.81 0.80 0.80 0.81 0.81
0.63 0.69 0.39 0.28 0.18 0.27 0.35 0.24 0.23 0.28 0.32 0.37 0.29 0.32 0.30 0.32 0.35 0.38 0.39 0.37 0.41 0.42 0.41 0.37 0.36 0.38 0.41 0.48 0.58 0.60 0.64 0.69 0.66 0.70 0.68 0.68 0.73 0.76 0.78 0.76 0.71 0.73 0.77 0.81
0.62 0.69 0.76 0.45 0.18 0.38 0.48 0.30 0.25 0.24 0.29 0.36 0.42 0.41 0.33 0.36 0.44 0.50 0.45 0.36 0.39 0.44 0.47 0.42 0.39 0.42 0.44 0.55 0.72 0.83 0.85 0.83 0.79 0.76 0.71 0.67 0.69 0.73 0.76 0.78 0.79 0.79 0.80 0.84
0.58 0.71 1.07 0.77 0.46 0.68 0.44 0.24 0.21 0.23 0.31 0.37 0.37 0.33 0.35 0.39 0.44 0.46 0.40 0.34 0.36 0.41 0.47 0.46 0.45 0.51 0.54 0.62 0.75 0.86 0.92 0.95 0.93 0.92 0.88 0.81 0.83 0.88 0.93 0.95 0.99 0.97 0.97 1.00
0.37 0.78 1.31 1.15 0.79 0.42 0.24 0.18 0.27 0.33 0.36 0.36 0.34 0.29 0.27 0.27 0.32 0.34 0.31 0.30 0.35 0.41 0.47 0.47 0.48 0.54 0.63 0.69 0.74 0.85 0.97 0.98 1.00 1.11 1.18 1.13 1.10 1.14 1.20 1.24 1.26 1.25 1.24 1.24
0.38 0.78 1.50 1.38 1.10 0.51 0.27 0.15 0.22 0.34 0.50 0.30 0.29 0.31 0.28 0.29 0.41 0.37 0.32 0.33 0.34 0.36 0.40 0.44 0.45 0.50 0.64 0.76 0.86 0.98 1.11 1.14 1.15 1.23 1.32 1.29 1.25 1.25 1.27 1.28 1.26 1.22 1.19 1.19
0.59 1.07 1.43 1.17 1.07 0.50 0.27 0.15 0.22 0.59 0.63 0.32 0.29 0.33 0.36 0.44 0.51 0.39 0.35 0.38 0.42 0.44 0.44 0.46 0.52 0.63 0.80 0.95 1.09 1.26 1.30 1.30 1.24 1.22 1.20 1.15 1.09 1.02 1.00 0.99 0.96 0.92 0.89 0.89
0.48 0.76 0.87 0.95 1.22 0.70 0.26 0.24 0.48 0.62 0.37 0.28 0.25 0.30 0.37 0.36 0.32 0.31 0.31 0.34 0.43 0.48 0.48 0.52 0.62 0.73 0.84 0.94 1.06 1.14 1.13 1.07 1.02 0.95 0.90 0.85 0.81 0.77 0.75 0.77 0.77 0.72 0.70 0.70
0.45 0.61 0.72 0.79 0.76 0.48 0.34 0.42 0.46 0.40 0.36 0.29 0.31 0.31 0.32 0.31 0.28 0.28 0.30 0.30 0.35 0.41 0.44 0.48 0.53 0.56 0.60 0.66 0.74 0.80 0.81 0.75 0.73 0.69 0.64 0.64 0.62 0.63 0.62 0.64 0.67 0.66 0.64 0.65
0.44 0.43 0.57 0.62 0.50 0.40 0.38 0.35 0.33 0.33 0.36 0.33 0.32 0.31 0.30 0.32 0.27 0.27 0.30 0.30 0.32 0.35 0.39 0.45 0.45 0.45 0.49 0.51 0.55 0.62 0.67 0.68 0.65 0.65 0.62 0.59 0.58 0.61 0.63 0.65 0.68 0.70 0.70 0.73
0.43 0.45 0.56 0.58 0.43 0.40 0.39 0.36 0.37 0.34 0.29 0.26 0.25 0.24 0.27 0.31 0.30 0.30 0.34 0.35 0.36 0.38 0.43 0.46 0.48 0.48 0.51 0.50 0.50 0.54 0.62 0.66 0.66 0.66 0.64 0.63 0.60 0.59 0.64 0.68 0.73 0.79 0.79 0.86
0.38 0.51 0.69 0.63 0.42 0.51 0.45 0.38 0.35 0.34 0.29 0.26 0.26 0.25 0.25 0.29 0.34 0.33 0.34 0.37 0.40 0.43 0.46 0.46 0.46 0.47 0.49 0.49 0.49 0.52 0.60 0.66 0.69 0.69 0.68 0.68 0.68 0.65 0.65 0.68 0.76 0.85 0.89 0.91